[[{"header":{"parameterUnit":"m.s-1","parameterCategory":2,"la1":30.2991,"la2":30.254,"lo1":-89.0895,"lo2":-89.0444,"dy":0.0017,"dx":0.0017,"nx":28,"ny":28,"refTime":"2023-08-10T09:00:00:Z","depth":"0","parameterNumber":2,"parameterNumberName":"U-component_of_CURRENTS"},"data":[0,0,0,0,0,0,0,0,0,0,0,0,0,0,0,0,0,0,0,0,0,0,0,0,0,0,0,0,0,0,0,0,0,0,0,0,0,0,0,0,0,0,0,0,0,0,0,0,0,0,0,0,0,0,0,0,0,0,-0.1125,-0.1126,0,-0.1203,-0.1204,-0.1205,-0.1121,-0.1118,-0.1115,-0.1112,-0.1148,-0.1152,-0.1156,0,0,0,0,0,0,0,0,0,0,0,0,0,-0.1074,-0.1074,-0.1125,-0.1126,-0.1127,-0.1203,-0.1204,-0.1205,-0.1122,-0.1118,-0.1114,-0.111,-0.1147,-0.1152,-0.1157,0,0,0,0,0,0,0,0,0,0,0,0,0,-0.1119,-0.1074,-0.1125,-0.1094,-0.1092,-0.1203,-0.1204,-0.1205,-0.1123,-0.1118,-0.1113,-0.1108,-0.1145,-0.1151,-0.1157,-0.1292,0,0,-0.1176,-0.1178,0,0,0,0,0,0,0,0,-0.1116,-0.112,-0.1098,-0.1097,-0.1094,-0.1147,-0.1199,-0.1232,-0.1124,-0.1112,-0.1112,-0.1106,-0.1148,-0.1153,-0.118,-0.1293,-0.1295,-0.1176,-0.118,-0.1182,-0.1184,0,0,0,0,0,0,0,-0.1113,-0.1118,-0.1156,-0.1099,-0.1097,-0.1135,-0.1134,-0.1206,-0.1156,-0.1112,-0.1106,-0.1116,-0.1145,-0.1174,-0.118,-0.1295,-0.1176,-0.1181,-0.1185,-0.1187,-0.1196,-0.1193,0,0,0,0,0,0,-0.1099,-0.1114,-0.1154,-0.1158,-0.1093,-0.1139,-0.1138,-0.1135,-0.1155,-0.1154,-0.112,-0.1112,-0.1166,-0.1173,-0.1181,-0.1033,-0.1182,-0.1188,-0.1191,-0.1199,-0.1195,-0.1192,0,0,0,0,0,0,-0.1097,-0.1101,-0.1151,-0.1138,-0.1147,-0.1144,-0.1142,-0.114,-0.1143,-0.1162,-0.1158,-0.1122,-0.1163,-0.1172,-0.1194,-0.1045,-0.1191,-0.1196,-0.1203,-0.1198,-0.1194,-0.0935,0,0,0,0,0,0,-0.1096,-0.11,-0.1081,-0.1137,-0.1147,-0.1165,-0.1147,-0.1145,-0.1158,-0.1147,-0.1165,-0.1163,-0.116,-0.1184,-0.1199,-0.1055,-0.1201,-0.1208,-0.1201,-0.1195,-0.0947,-0.0921,-0.0899,0,0,0,0,0,-0.1093,-0.1063,-0.1079,-0.1083,-0.1124,-0.1164,-0.1172,-0.1156,-0.1163,-0.1147,-0.1158,-0.1161,-0.115,-0.1191,-0.1208,-0.1061,-0.1211,-0.1203,-0.1196,-0.0958,-0.0927,-0.09,0,0,0,0,0,0,-0.1027,-0.1055,-0.1072,-0.1051,-0.1091,-0.1148,-0.1131,-0.1168,-0.1177,-0.1157,-0.1186,-0.1186,-0.1113,-0.1174,-0.1217,-0.1044,-0.1157,-0.1153,-0.097,-0.0941,-0.0917,-0.0903,-0.1206,0,0,0,0,0,-0.1014,-0.099,-0.105,-0.1034,-0.105,-0.111,-0.1126,-0.1131,-0.1159,-0.1157,-0.1177,-0.1168,-0.111,-0.1099,-0.1088,-0.1074,-0.1103,-0.0972,-0.0948,-0.0927,-0.0927,-0.0887,-0.0859,-0.1167,-0.1167,-0.1167,0,0,-0.0993,-0.0999,-0.0991,-0.1018,-0.1048,-0.1026,-0.1103,-0.1115,-0.1061,-0.1168,-0.1103,-0.1108,-0.1093,-0.0995,-0.0966,-0.1022,-0.0842,-0.0917,-0.0898,-0.0911,-0.0876,-0.0846,-0.0819,-0.1162,-0.1163,-0.1163,0,0,-0.0923,-0.0942,-0.0897,-0.091,-0.094,-0.0968,-0.0974,-0.1034,-0.1009,-0.1007,-0.099,-0.0932,-0.0944,-0.0842,-0.0801,-0.0674,-0.0716,-0.0652,-0.0517,-0.0475,-0.045,-0.0428,-0.0364,-0.0339,-0.0638,-0.0637,-0.0637,0,-0.09,-0.0849,-0.0896,-0.0847,-0.0845,-0.0931,-0.0895,-0.0878,-0.0927,-0.0925,-0.0937,-0.0868,-0.0835,-0.0668,-0.0561,-0.0603,-0.0615,-0.0616,-0.0441,-0.042,-0.0402,-0.0344,-0.0319,-0.0624,-0.0625,-0.0627,-0.0628,0,-0.0797,-0.0751,-0.0728,-0.068,-0.068,-0.0673,-0.0672,-0.0665,-0.0683,-0.0695,-0.0604,-0.0574,-0.0536,-0.0456,-0.0454,-0.0273,-0.0329,-0.041,-0.0508,-0.0355,-0.0303,-0.0282,-0.0605,-0.0609,-0.0613,-0.0617,0,0,-0.0786,-0.068,-0.0672,-0.063,-0.0603,-0.0608,-0.0504,-0.0487,-0.0451,-0.0431,-0.0377,-0.0199,-0.025,-0.0207,-0.0181,-0.0106,0.0085,-0.0187,-0.0191,-0.0111,0.0185,0.0283,0.0314,0.0016,0.0019,0.0022,0.0192,0,-0.0713,-0.0591,-0.0554,-0.0449,-0.0409,-0.042,-0.0335,-0.0312,-0.0309,-0.0275,-0.0205,-0.0144,-0.0126,-0.01,-0.0002,0.0054,0.014,0.0047,0.0009,0.0009,0.0089,0.0342,0.0481,0.0654,0.0212,0.0215,0.0218,0,-0.064,-0.0568,-0.0455,-0.0364,-0.0353,-0.0286,-0.0241,-0.0174,-0.012,-0.0128,-0.0065,-0.0069,0.0121,0.0054,0.0263,0.019,0.0214,0.0242,0.0246,0.0251,0.0147,0.0414,0.0707,0.0678,0.0249,0.0246,0.0244,0,-0.0645,-0.0511,-0.0425,-0.0389,-0.0286,-0.0238,-0.0194,-0.0146,-0.0093,-0.0046,-0.0023,0.0099,0.0202,0.0256,0.038,0.0304,0.0555,0.0436,0.0546,0.0551,0.0621,0.0627,0.089,0.0536,0.0535,0.0535,0.0534,0,-0.0594,-0.0519,-0.0417,-0.0365,-0.028,-0.0222,-0.0142,-0.0107,-0.0032,0.0046,0.0057,0.0166,0.025,0.0392,0.0428,0.0629,0.0605,0.0641,0.063,0.0722,0.0735,0.0662,0.0468,0.0541,0.054,0.0539,0.0537,0,-0.0574,-0.051,-0.0409,-0.0303,-0.027,-0.0208,-0.0094,-0.0034,0.0018,0.0132,0.0158,0.0285,0.0502,0.0594,0.0734,0.075,0.0827,0.0894,0.1026,0.103,0.1087,0.0897,0.0856,0.0845,0.1061,0.1064,0.1068,0,-0.0529,-0.048,-0.0379,-0.0328,-0.0262,-0.0168,-0.0102,-0.0024,0.0056,0.0226,0.0306,0.0519,0.0691,0.0977,0.109,0.1225,0.1016,0.1335,0.1227,0.1202,0.0979,0.0705,0.0676,0.1438,0.1444,0.1448,0.1452,0,-0.0454,-0.0441,-0.0376,-0.0285,-0.0202,-0.0098,0.0019,0.0084,0.0201,0.0316,0.0527,0.0671,0.1001,0.1272,0.1448,0.1498,0.1249,0.1438,0.1383,0.131,0.1051,0.0999,0.1202,0.1496,0.1492,0.1489,0.1486,0.1485,-0.0414,-0.037,-0.0312,-0.022,-0.0138,-0.0011,0.008,0.0205,0.0354,0.0552,0.0689,0.093,0.131,0.1637,0.1688,0.1857,0.155,0.181,0.1592,0.1329,0.1297,0.1624,0.1903,0.1901,0.1899,0.1898,0.1897,0,-0.035,-0.0306,-0.0231,-0.0117,-0.0023,0.002,0.0176,0.0272,0.0452,0.0636,0.0841,0.1261,0.1626,0.1864,0.2161,0.2063,0.1857,0.1927,0.1599,0.1573,0.1929,0.1938,0.2273,0.2273,0.2273,0.2273,0.2273,0.2273,-0.0306,-0.0238,-0.0198,-0.003,0.0051,0.0211,0.0299,0.0424,0.0557,0.0815,0.1026,0.1178,0.1574,0.1988,0.2156,0.2081,0.1729,0.1586,0.1405,0.1691,0.1663,0.1637,0.1618,0.188,0.1879,0.1174,0.1168,0.1163]},{"header":{"parameterUnit":"m.s-1","parameterCategory":2,"la1":30.2991,"la2":30.254,"lo1":-89.0895,"lo2":-89.0444,"dy":0.0017,"dx":0.0017,"nx":28,"ny":28,"refTime":"2023-08-10T09:00:00:Z","depth":"0","parameterNumber":3,"parameterNumberName":"V-component_of_CURRENTS"},"data":[0,0,0,0,0,0,0,0,0,0,0,0,0,0,0,0,0,0,0,0,0,0,0,0,0,0,0,0,0,0,0,0,0,0,0,0,0,0,0,0,0,0,0,0,0,0,0,0,0,0,0,0,0,0,0,0,0,0,-0.0281,-0.0282,0,-0.0349,-0.0349,-0.035,-0.0366,-0.0366,-0.0365,-0.0365,-0.0161,-0.0156,-0.015,0,0,0,0,0,0,0,0,0,0,0,0,0,-0.0253,-0.0253,-0.0281,-0.0282,-0.0283,-0.0349,-0.0349,-0.035,-0.0366,-0.0366,-0.0365,-0.0365,-0.0162,-0.0156,-0.015,0,0,0,0,0,0,0,0,0,0,0,0,0,-0.0285,-0.0253,-0.0281,-0.03,-0.0303,-0.0349,-0.035,-0.035,-0.0366,-0.0366,-0.0365,-0.0365,-0.0164,-0.0157,-0.0149,-0.0108,0,0,-0.0125,-0.0122,0,0,0,0,0,0,0,0,-0.0283,-0.0286,-0.0296,-0.0299,-0.0302,-0.0351,-0.0265,-0.0257,-0.0366,-0.034,-0.0365,-0.0365,-0.0201,-0.019,-0.0204,-0.0099,-0.009,-0.0125,-0.012,-0.0116,-0.0114,0,0,0,0,0,0,0,-0.0281,-0.0284,-0.0305,-0.0298,-0.0301,-0.0337,-0.034,-0.0265,-0.0264,-0.0342,-0.0344,-0.0355,-0.02,-0.0212,-0.0199,-0.0087,-0.0125,-0.0118,-0.0113,-0.011,0.0294,0.03,0,0,0,0,0,0,-0.0273,-0.0281,-0.0303,-0.0307,-0.0294,-0.0337,-0.0341,-0.0333,-0.0271,-0.0264,-0.0356,-0.0356,-0.0225,-0.0208,-0.0191,-0.0039,-0.0117,-0.0109,-0.0105,0.0288,0.0296,0.0302,0,0,0,0,0,0,-0.0272,-0.0273,-0.03,-0.0299,-0.0305,-0.0338,-0.033,-0.0335,-0.035,-0.0285,-0.0272,-0.0365,-0.0224,-0.0202,-0.0081,-0.0034,-0.0106,-0.0099,0.0281,0.0291,0.0299,0.0204,0,0,0,0,0,0,-0.027,-0.0272,-0.0271,-0.0298,-0.0305,-0.0312,-0.0331,-0.0337,-0.0358,-0.0359,-0.0288,-0.027,-0.0222,-0.0092,-0.0073,-0.0024,-0.0092,0.0273,0.0285,0.0296,0.02,0.0209,0.0217,0,0,0,0,0,-0.0269,-0.0279,-0.0269,-0.0273,-0.0299,-0.0312,-0.0318,-0.034,-0.0359,-0.0354,-0.0281,-0.0272,-0.0004,-0.0083,-0.0061,-0.0009,0.0268,0.0282,0.0295,0.0196,0.0207,0.0217,0,0,0,0,0,0,-0.0273,-0.0282,-0.0273,-0.0284,-0.0285,-0.0315,-0.0332,-0.0344,-0.0297,-0.0288,-0.0228,-0.0201,-0.0063,-0.0,-0.0089,0.0162,0.0147,0.0166,0.0065,0.0076,0.0085,0.0009,-0.0086,0,0,0,0,0,-0.0269,-0.0272,-0.0276,-0.0283,-0.0286,-0.0307,-0.0321,-0.0327,-0.0296,-0.0282,-0.0231,-0.0122,0.001,0.0064,0.0181,0.0282,0.0275,0.0355,0.0363,0.0369,0.0337,0.0385,0.0389,0.0347,0.0347,0.0346,0,0,-0.0273,-0.028,-0.0282,-0.0284,-0.0294,-0.0284,-0.0314,-0.0329,-0.0305,-0.0256,-0.0198,-0.0099,0.0054,0.0185,0.0254,0.0234,0.0381,0.0386,0.0388,0.0353,0.0399,0.0401,0.0403,0.0356,0.0354,0.0353,0,0,-0.0279,-0.0285,-0.028,-0.0278,-0.0285,-0.0286,-0.0287,-0.0298,-0.0286,-0.0211,-0.0137,-0.002,0.0136,0.0245,0.033,0.0465,0.0431,0.0531,0.0484,0.0531,0.053,0.053,0.0488,0.0485,0.0521,0.0521,0.0521,0,-0.0276,-0.0265,-0.0282,-0.0273,-0.0269,-0.0281,-0.0261,-0.025,-0.0215,-0.019,-0.0181,0.0052,0.0169,0.0336,0.0392,0.0472,0.0451,0.0404,0.0525,0.0526,0.0526,0.0484,0.0481,0.0518,0.0519,0.0519,0.0519,0,-0.0264,-0.0256,-0.026,-0.0234,-0.0232,-0.0223,-0.0202,-0.0182,-0.0167,-0.0156,-0.0026,0.0107,0.0245,0.0323,0.0391,0.0495,0.0459,0.052,0.0452,0.0521,0.0477,0.0475,0.0514,0.0515,0.0516,0.0517,0,0,-0.0245,-0.0243,-0.0242,-0.0218,-0.0207,-0.0198,-0.0153,-0.0111,-0.0081,-0.0044,-0.0001,0.0209,0.0223,0.0326,0.0424,0.0448,0.0444,0.0462,0.0466,0.0334,0.0455,0.0455,0.0453,0.0494,0.0495,0.0495,0.0401,0,-0.0215,-0.0186,-0.0194,-0.0153,-0.013,-0.0122,-0.0078,-0.0047,-0.0014,0.0022,0.0105,0.021,0.0246,0.032,0.0347,0.0466,0.0442,0.0458,0.0483,0.0482,0.0404,0.0455,0.0511,0.0436,0.0399,0.0399,0.0399,0,-0.0188,-0.0169,-0.0128,-0.0094,-0.0083,-0.0057,0.0004,0.0041,0.0081,0.0092,0.0137,0.0197,0.0288,0.0299,0.0389,0.0384,0.0393,0.0422,0.0421,0.0445,0.0482,0.0383,0.0434,0.0501,0.0396,0.0396,0.0397,0,-0.0155,-0.0123,-0.0084,-0.0073,-0.0035,-0.0006,0.0022,0.0065,0.0099,0.0129,0.0149,0.0218,0.0294,0.031,0.0389,0.0387,0.0422,0.0458,0.0426,0.0423,0.0491,0.0494,0.0541,0.0451,0.0451,0.0451,0.0451,0,-0.0119,-0.0087,-0.0064,-0.0042,0.0017,0.0026,0.0086,0.0105,0.0136,0.017,0.0189,0.0242,0.0299,0.0344,0.0358,0.0386,0.0411,0.0394,0.0414,0.0465,0.0467,0.0548,0.058,0.0448,0.0448,0.0449,0.045,0,-0.0088,-0.0077,-0.0033,0.001,0.0029,0.0068,0.0113,0.0158,0.0167,0.0212,0.0224,0.0274,0.0333,0.0351,0.0404,0.0389,0.045,0.0389,0.0393,0.0417,0.0456,0.0482,0.0501,0.0587,0.0329,0.0329,0.0328,0,-0.0065,-0.0045,0.0001,0.0028,0.005,0.0103,0.0146,0.0165,0.0206,0.0247,0.028,0.0334,0.0383,0.0411,0.0412,0.0383,0.0448,0.0386,0.0425,0.0446,0.0491,0.0496,0.057,0.0455,0.0456,0.0456,0.0457,0,-0.0022,-0.0018,0.0015,0.0074,0.0117,0.0174,0.0234,0.0266,0.0292,0.0331,0.0396,0.0434,0.044,0.048,0.0426,0.0416,0.0481,0.0397,0.0462,0.0615,0.0586,0.0684,0.046,0.0463,0.0462,0.0462,0.0461,0.0461,0.0002,0.0031,0.0069,0.0122,0.0184,0.0263,0.0321,0.0374,0.0444,0.0536,0.0532,0.0639,0.0608,0.0571,0.0514,0.0518,0.0512,0.0542,0.0565,0.056,0.0683,0.0417,0.0438,0.0437,0.0436,0.0436,0.0435,0,0.0031,0.0064,0.0122,0.0204,0.0297,0.0311,0.0403,0.0471,0.0569,0.0662,0.074,0.0907,0.0848,0.0788,0.0725,0.0713,0.0725,0.0724,0.0777,0.0845,0.065,0.0701,0.0731,0.0731,0.0731,0.0731,0.0731,0.0731,0.0054,0.0093,0.0126,0.0283,0.0366,0.0505,0.0562,0.0644,0.0736,0.0945,0.112,0.1219,0.1271,0.1005,0.0937,0.0905,0.102,0.0944,0.1003,0.0894,0.088,0.0867,0.0925,0.1002,0.1002,0.1239,0.1241,0.1242]}],[{"header":{"parameterUnit":"m.s-1","parameterCategory":2,"la1":30.2991,"la2":30.254,"lo1":-89.0895,"lo2":-89.0444,"dy":0.0017,"dx":0.0017,"nx":28,"ny":28,"refTime":"2023-08-10T09:00:00:Z","depth":"2","parameterNumber":2,"parameterNumberName":"U-component_of_CURRENTS"},"data":[0,0,0,0,0,0,0,0,0,0,0,0,0,0,0,0,0,0,0,0,0,0,0,0,0,0,0,0,0,0,0,0,0,0,0,0,0,0,0,0,0,0,0,0,0,0,0,0,0,0,0,0,0,0,0,0,0,0,-0.266,-0.266,0,-0.2612,-0.2611,-0.261,-0.2539,-0.2539,-0.2539,-0.2538,-0.2293,-0.2287,-0.2281,0,0,0,0,0,0,0,0,0,0,0,0,0,-0.263,-0.263,-0.266,-0.266,-0.266,-0.2613,-0.2611,-0.261,-0.254,-0.2539,-0.2538,-0.2538,-0.2295,-0.2288,-0.2281,0,0,0,0,0,0,0,0,0,0,0,0,0,-0.2611,-0.263,-0.266,-0.2626,-0.2623,-0.2613,-0.2611,-0.2609,-0.254,-0.2539,-0.2538,-0.2538,-0.2297,-0.2289,-0.228,-0.2237,0,0,-0.2252,-0.2248,0,0,0,0,0,0,0,0,-0.2612,-0.2611,-0.2631,-0.2628,-0.2625,-0.2589,-0.2511,-0.2478,-0.254,-0.2562,-0.2538,-0.2537,-0.238,-0.2364,-0.2347,-0.2225,-0.2215,-0.2251,-0.2245,-0.2241,-0.2239,0,0,0,0,0,0,0,-0.2613,-0.2612,-0.2632,-0.2631,-0.2628,-0.2593,-0.2589,-0.2504,-0.2465,-0.256,-0.2557,-0.2566,-0.2375,-0.2356,-0.234,-0.2211,-0.2251,-0.2243,-0.2237,-0.2234,-0.2001,-0.2,0,0,0,0,0,0,-0.2641,-0.2614,-0.2634,-0.2632,-0.2626,-0.2595,-0.259,-0.2594,-0.247,-0.2455,-0.2566,-0.2563,-0.2372,-0.2351,-0.2331,-0.2262,-0.2241,-0.2233,-0.2228,-0.2002,-0.2001,-0.2,0,0,0,0,0,0,-0.264,-0.2643,-0.2636,-0.2629,-0.2626,-0.2598,-0.2602,-0.2594,-0.2533,-0.2479,-0.2457,-0.2511,-0.2371,-0.2344,-0.2213,-0.2252,-0.2229,-0.222,-0.2002,-0.2001,-0.2,-0.213,0,0,0,0,0,0,-0.2639,-0.2642,-0.2646,-0.2631,-0.2628,-0.2626,-0.2603,-0.2593,-0.2547,-0.254,-0.2424,-0.2404,-0.2368,-0.2226,-0.2204,-0.2239,-0.2213,-0.2003,-0.2002,-0.2001,-0.2127,-0.2134,-0.214,0,0,0,0,0,-0.2638,-0.2648,-0.2646,-0.2649,-0.2637,-0.2627,-0.2621,-0.2592,-0.2544,-0.2528,-0.2425,-0.2405,-0.2204,-0.2216,-0.219,-0.2225,-0.2004,-0.2002,-0.2001,-0.2124,-0.2132,-0.214,0,0,0,0,0,0,-0.2617,-0.2642,-0.264,-0.2651,-0.2641,-0.2618,-0.2622,-0.2565,-0.2472,-0.2438,-0.2362,-0.2334,-0.2255,-0.2192,-0.2208,-0.2151,-0.2114,-0.2107,-0.2217,-0.2224,-0.223,-0.2274,-0.2206,0,0,0,0,0,-0.2625,-0.2657,-0.2648,-0.2663,-0.2666,-0.2627,-0.2612,-0.2567,-0.2497,-0.2455,-0.2357,-0.227,-0.2236,-0.2185,-0.2123,-0.2054,-0.1967,-0.2066,-0.2073,-0.2079,-0.2094,-0.193,-0.1923,-0.1995,-0.1995,-0.1995,0,0,-0.2624,-0.2647,-0.2661,-0.2665,-0.2666,-0.264,-0.2614,-0.2579,-0.253,-0.2438,-0.2316,-0.2271,-0.2217,-0.2174,-0.2135,-0.2118,-0.2019,-0.2077,-0.2084,-0.2095,-0.1928,-0.1921,-0.1914,-0.1994,-0.1994,-0.1994,0,0,-0.2633,-0.2662,-0.2676,-0.2676,-0.2664,-0.2636,-0.2611,-0.2536,-0.2492,-0.2396,-0.2334,-0.2289,-0.2185,-0.2172,-0.2163,-0.2147,-0.2057,-0.2135,-0.2203,-0.2044,-0.2037,-0.203,-0.1945,-0.1929,-0.214,-0.214,-0.214,0,-0.2641,-0.2633,-0.2673,-0.2675,-0.2685,-0.2625,-0.2604,-0.2553,-0.2418,-0.24,-0.2371,-0.2265,-0.2212,-0.2204,-0.2232,-0.2171,-0.207,-0.2191,-0.2054,-0.2045,-0.2035,-0.1949,-0.193,-0.2146,-0.2145,-0.2145,-0.2144,0,-0.262,-0.2625,-0.2642,-0.2638,-0.2653,-0.2622,-0.2589,-0.2511,-0.2457,-0.2431,-0.239,-0.2324,-0.2277,-0.228,-0.2269,-0.2206,-0.2155,-0.2082,-0.2044,-0.2036,-0.1946,-0.1924,-0.2155,-0.2153,-0.2151,-0.2149,0,0,-0.2633,-0.2625,-0.264,-0.2633,-0.2623,-0.2626,-0.2576,-0.2545,-0.2501,-0.244,-0.2415,-0.2423,-0.24,-0.2384,-0.2342,-0.2246,-0.2128,-0.2153,-0.2141,-0.209,-0.1803,-0.1701,-0.1667,-0.2003,-0.1999,-0.1996,-0.1782,0,-0.2603,-0.2575,-0.2611,-0.2596,-0.2567,-0.2574,-0.2561,-0.2535,-0.2497,-0.2434,-0.2448,-0.2386,-0.2436,-0.2386,-0.233,-0.2159,-0.2067,-0.2196,-0.1801,-0.1792,-0.1716,-0.1636,-0.1673,-0.1476,-0.1759,-0.1756,-0.1753,0,-0.2569,-0.2547,-0.2534,-0.2556,-0.2567,-0.2579,-0.2572,-0.253,-0.249,-0.2439,-0.2431,-0.2406,-0.2347,-0.2316,-0.211,-0.2175,-0.2014,-0.189,-0.1875,-0.1719,-0.1645,-0.1518,-0.1424,-0.1714,-0.1717,-0.172,-0.1723,0,-0.2526,-0.2518,-0.251,-0.2517,-0.2522,-0.2563,-0.2561,-0.2555,-0.2501,-0.2392,-0.2315,-0.2305,-0.2207,-0.2056,-0.1909,-0.1951,-0.1622,-0.1623,-0.1398,-0.1392,-0.1318,-0.131,-0.1407,-0.1408,-0.1408,-0.1409,-0.1409,0,-0.2485,-0.2483,-0.2492,-0.2491,-0.2504,-0.2549,-0.2552,-0.25,-0.2428,-0.2358,-0.2306,-0.2208,-0.211,-0.1967,-0.1849,-0.1571,-0.1561,-0.1395,-0.1302,-0.1367,-0.1366,-0.1485,-0.1497,-0.1401,-0.1403,-0.1404,-0.1405,0,-0.247,-0.2457,-0.2449,-0.2474,-0.2488,-0.2512,-0.2515,-0.2469,-0.2366,-0.2237,-0.2173,-0.2072,-0.1851,-0.1756,-0.1477,-0.1429,-0.1187,-0.1068,-0.1202,-0.1128,-0.11,-0.1121,-0.0819,-0.0813,-0.0808,-0.0804,-0.08,0,-0.2449,-0.2435,-0.2456,-0.2439,-0.2474,-0.2479,-0.2466,-0.2416,-0.2349,-0.2154,-0.2086,-0.1863,-0.1719,-0.1341,-0.1168,-0.091,-0.0949,-0.0772,-0.0859,-0.1086,-0.1026,-0.1055,-0.1082,-0.084,-0.0837,-0.0835,-0.0833,0,-0.2392,-0.243,-0.2415,-0.2371,-0.2383,-0.2377,-0.2363,-0.23,-0.2208,-0.2079,-0.1899,-0.1767,-0.1438,-0.1183,-0.0844,-0.074,-0.0842,-0.0709,-0.082,-0.0981,-0.1084,-0.1034,-0.1063,-0.0811,-0.0813,-0.0815,-0.0816,-0.0817,-0.2332,-0.2327,-0.2285,-0.2279,-0.2265,-0.2245,-0.2194,-0.2157,-0.2043,-0.1793,-0.1762,-0.1435,-0.1292,-0.0742,-0.0618,-0.052,-0.0563,-0.056,-0.0576,-0.0593,-0.063,-0.0717,-0.0388,-0.0388,-0.0387,-0.0387,-0.0387,0,-0.2182,-0.2165,-0.2158,-0.2127,-0.2095,-0.2123,-0.2075,-0.1953,-0.1807,-0.1595,-0.1396,-0.1028,-0.0794,-0.0602,-0.0413,-0.0348,-0.0472,-0.0349,-0.0526,-0.0547,-0.0566,-0.0611,-0.0358,-0.0357,-0.0356,-0.0356,0,0,-0.2056,-0.2006,-0.2051,-0.1949,-0.1926,-0.1816,-0.1765,-0.1587,-0.1401,-0.1091,-0.0858,-0.0698,-0.0584,-0.0405,-0.04,-0.0329,-0.0455,-0.0355,-0.0394,-0.0626,-0.0643,-0.071,-0.0803,0,0,0,0,0]},{"header":{"parameterUnit":"m.s-1","parameterCategory":2,"la1":30.2991,"la2":30.254,"lo1":-89.0895,"lo2":-89.0444,"dy":0.0017,"dx":0.0017,"nx":28,"ny":28,"refTime":"2023-08-10T09:00:00:Z","depth":"2","parameterNumber":3,"parameterNumberName":"V-component_of_CURRENTS"},"data":[0,0,0,0,0,0,0,0,0,0,0,0,0,0,0,0,0,0,0,0,0,0,0,0,0,0,0,0,0,0,0,0,0,0,0,0,0,0,0,0,0,0,0,0,0,0,0,0,0,0,0,0,0,0,0,0,0,0,-0.0179,-0.0177,0,-0.0013,-0.0012,-0.001,0.0113,0.0115,0.0116,0.0118,0.0229,0.023,0.0231,0,0,0,0,0,0,0,0,0,0,0,0,0,-0.0427,-0.0423,-0.0179,-0.0176,-0.0174,-0.0013,-0.0012,-0.001,0.0113,0.0115,0.0117,0.0119,0.0228,0.023,0.0231,0,0,0,0,0,0,0,0,0,0,0,0,0,-0.0301,-0.0422,-0.0179,-0.0089,-0.0079,-0.0014,-0.0012,-0.0009,0.0112,0.0115,0.0117,0.0119,0.0227,0.023,0.0232,0.0196,0,0,0.0238,0.0239,0,0,0,0,0,0,0,0,-0.0309,-0.0293,-0.0105,-0.0095,-0.0083,0.0037,-0.0058,0.0059,0.0112,0.0034,0.0118,0.0121,0.0161,0.0169,0.0187,0.0201,0.0206,0.0238,0.024,0.0241,0.0241,0,0,0,0,0,0,0,-0.0317,-0.03,-0.0119,-0.0102,-0.0089,-0.0069,-0.0049,-0.0036,0.0076,0.0041,0.0051,0.0078,0.0166,0.0185,0.0191,0.0208,0.0238,0.024,0.0242,0.0242,0.0307,0.0307,0,0,0,0,0,0,-0.0326,-0.0308,-0.0124,-0.0114,-0.0186,-0.0066,-0.0044,-0.0009,0.0078,0.0095,0.0076,0.0084,0.018,0.0188,0.0195,0.0208,0.0241,0.0243,0.0244,0.0306,0.0307,0.0307,0,0,0,0,0,0,-0.0332,-0.0311,-0.0131,-0.0203,-0.0178,-0.0063,-0.0026,-0.0007,0.0012,0.0106,0.0122,0.0076,0.0182,0.0192,0.0195,0.0211,0.0244,0.0246,0.0306,0.0306,0.0307,0.0201,0,0,0,0,0,0,-0.034,-0.0315,-0.0302,-0.0203,-0.0174,-0.0121,-0.0027,-0.0005,0.0028,0.0039,0.0111,0.0125,0.0185,0.0191,0.0197,0.0215,0.0247,0.0305,0.0306,0.0307,0.0204,0.0198,0.0193,0,0,0,0,0,-0.035,-0.0349,-0.0303,-0.028,-0.0157,-0.0122,-0.0109,-0.0022,0.0025,0.0007,0.0066,0.0122,0.0203,0.019,0.0198,0.0218,0.0305,0.0306,0.0307,0.0207,0.02,0.0193,0,0,0,0,0,0,-0.0442,-0.0333,-0.028,-0.0241,-0.0196,-0.01,-0.0087,-0.0044,-0.001,0.0008,0.009,0.0105,0.012,0.0174,0.0159,0.0245,0.0278,0.028,0.02,0.0193,0.0188,0.0205,0.0249,0,0,0,0,0,-0.0458,-0.0426,-0.0334,-0.0304,-0.0279,-0.0192,-0.0165,-0.0119,-0.0066,-0.0046,-0.0004,0.0068,0.0129,0.016,0.0198,0.0217,0.0264,0.025,0.0245,0.0239,0.0262,0.0321,0.0322,0.031,0.031,0.031,0,0,-0.048,-0.0416,-0.0395,-0.0323,-0.0264,-0.0253,-0.0172,-0.0145,-0.0133,-0.0045,-0.0038,0.0019,0.0122,0.0157,0.0175,0.0206,0.026,0.0241,0.0235,0.0262,0.0322,0.0323,0.0324,0.0311,0.0311,0.0311,0,0,-0.0519,-0.0456,-0.0446,-0.0422,-0.0355,-0.031,-0.0314,-0.025,-0.0215,-0.0209,-0.0118,-0.0055,-0.0,0.01,0.0162,0.0145,0.0208,0.0164,0.0169,0.0223,0.0225,0.0226,0.0245,0.025,0.0185,0.0185,0.0184,0,-0.0543,-0.0513,-0.0447,-0.0443,-0.0417,-0.0345,-0.0348,-0.0317,-0.0271,-0.0227,-0.0221,-0.0065,-0.0007,0.0117,0.0125,0.0135,0.0159,0.0177,0.0214,0.0217,0.0221,0.024,0.0246,0.018,0.018,0.0181,0.0181,0,-0.0575,-0.0562,-0.056,-0.0518,-0.0502,-0.05,-0.0439,-0.0432,-0.0383,-0.032,-0.0232,-0.0146,-0.002,0.0004,0.0061,0.0146,0.0146,0.0173,0.0222,0.0215,0.0236,0.0244,0.0173,0.0174,0.0176,0.0177,0,0,-0.0586,-0.058,-0.0578,-0.0573,-0.054,-0.0524,-0.0512,-0.0448,-0.0381,-0.035,-0.0254,-0.0148,-0.0066,0.0012,0.0097,0.0152,0.0173,0.0172,0.0177,0.0174,0.0262,0.0279,0.029,0.0194,0.0196,0.0198,0.0249,0,-0.0619,-0.0647,-0.0624,-0.0645,-0.065,-0.0591,-0.0562,-0.0499,-0.0423,-0.0336,-0.0208,-0.0102,-0.0068,0.0012,0.0069,0.0163,0.0198,0.0156,0.0286,0.029,0.0294,0.0303,0.0251,0.0296,0.0258,0.0259,0.026,0,-0.0645,-0.0663,-0.0697,-0.0674,-0.0659,-0.0653,-0.0553,-0.0515,-0.0373,-0.0305,-0.0177,-0.0084,0.0043,0.0052,0.0196,0.0162,0.0204,0.025,0.0254,0.0325,0.0326,0.0309,0.0313,0.0275,0.0274,0.0273,0.0272,0,-0.0682,-0.0701,-0.0727,-0.0731,-0.0701,-0.0668,-0.0618,-0.0491,-0.0425,-0.0266,-0.0201,-0.0042,0.0055,0.0129,0.0225,0.0212,0.0347,0.035,0.0396,0.0396,0.0413,0.0413,0.0424,0.0424,0.0423,0.0423,0.0423,0,-0.0723,-0.074,-0.0742,-0.0759,-0.0735,-0.0682,-0.0591,-0.0519,-0.0384,-0.0279,-0.0169,-0.0076,0.0074,0.017,0.023,0.0346,0.0356,0.0408,0.0426,0.0371,0.0366,0.0411,0.0409,0.0425,0.0425,0.0424,0.0424,0,-0.0759,-0.0771,-0.0796,-0.0776,-0.0758,-0.0726,-0.0613,-0.0532,-0.0414,-0.0282,-0.0241,-0.0091,0.0039,0.0157,0.0302,0.0368,0.0464,0.0488,0.0397,0.0405,0.0465,0.0457,0.0561,0.0562,0.0563,0.0564,0.0565,0,-0.0776,-0.0803,-0.0813,-0.0808,-0.0795,-0.0733,-0.067,-0.0556,-0.0469,-0.0293,-0.0238,-0.0093,-0.0009,0.0193,0.0369,0.0493,0.0477,0.0513,0.0502,0.048,0.0487,0.0477,0.0468,0.0457,0.0457,0.0457,0.0457,0,-0.0803,-0.0808,-0.0823,-0.0822,-0.0786,-0.0757,-0.0661,-0.0619,-0.0454,-0.0378,-0.027,-0.0214,0.002,0.0166,0.0364,0.0429,0.0498,0.0517,0.0543,0.0436,0.0389,0.0393,0.0386,0.0456,0.0456,0.0456,0.0456,0.0456,-0.0791,-0.0811,-0.0818,-0.0814,-0.0784,-0.0763,-0.0708,-0.0628,-0.0545,-0.0416,-0.0358,-0.0263,-0.0097,0.0169,0.0321,0.0523,0.053,0.0533,0.0531,0.0529,0.0514,0.0473,0.055,0.0551,0.0551,0.0552,0.0552,0,-0.0779,-0.0789,-0.0798,-0.0805,-0.08,-0.0747,-0.0678,-0.0643,-0.056,-0.0477,-0.042,-0.0289,-0.0146,0.0065,0.0391,0.054,0.0524,0.0533,0.0474,0.0473,0.0473,0.0453,0.0475,0.0475,0.0475,0.0476,0,0,-0.0766,-0.079,-0.0819,-0.0821,-0.0784,-0.0714,-0.0661,-0.0646,-0.0589,-0.0526,-0.0433,-0.0432,-0.0167,0.0008,0.0194,0.0371,0.038,0.0373,0.0416,0.0322,0.032,0.0452,0.0418,0,0,0,0,0]}],[{"header":{"parameterUnit":"m.s-1","parameterCategory":2,"la1":30.2991,"la2":30.254,"lo1":-89.0895,"lo2":-89.0444,"dy":0.0017,"dx":0.0017,"nx":28,"ny":28,"refTime":"2023-08-10T09:00:00:Z","depth":"4","parameterNumber":2,"parameterNumberName":"U-component_of_CURRENTS"},"data":[0,0,0,0,0,0,0,0,0,0,0,0,0,0,0,0,0,0,0,0,0,0,0,0,0,0,0,0,0,0,0,0,0,0,0,0,0,0,0,0,0,0,0,0,0,0,0,0,0,0,0,0,0,0,0,0,0,0,-0.1128,-0.1129,0,-0.1212,-0.1213,-0.1214,-0.1251,-0.1251,-0.125,-0.125,-0.1334,-0.1336,-0.1339,0,0,0,0,0,0,0,0,0,0,0,0,0,-0.103,-0.1032,-0.1128,-0.1129,-0.113,-0.1212,-0.1213,-0.1214,-0.1251,-0.1251,-0.125,-0.125,-0.1333,-0.1336,-0.1339,0,0,0,0,0,0,0,0,0,0,0,0,0,-0.1091,-0.1033,-0.1128,-0.1157,-0.116,-0.1211,-0.1213,-0.1215,-0.1251,-0.1251,-0.125,-0.125,-0.1332,-0.1336,-0.134,-0.1371,0,0,-0.1351,-0.1353,0,0,0,0,0,0,0,0,-0.1087,-0.1095,-0.1152,-0.1155,-0.1159,-0.1219,-0.1209,-0.1266,-0.1251,-0.1218,-0.125,-0.125,-0.1295,-0.1302,-0.1321,-0.1375,-0.1378,-0.1351,-0.1354,-0.1355,-0.1356,0,0,0,0,0,0,0,-0.1083,-0.1091,-0.1163,-0.1153,-0.1157,-0.1176,-0.1184,-0.122,-0.1259,-0.1221,-0.1224,-0.123,-0.1297,-0.1317,-0.1323,-0.1379,-0.1351,-0.1354,-0.1357,-0.1358,-0.1497,-0.1498,0,0,0,0,0,0,-0.1069,-0.1087,-0.116,-0.1165,-0.1119,-0.1178,-0.1187,-0.1202,-0.1259,-0.1267,-0.1231,-0.1232,-0.1311,-0.1318,-0.1326,-0.1395,-0.1355,-0.1359,-0.1361,-0.1495,-0.1497,-0.1498,0,0,0,0,0,0,-0.1066,-0.1075,-0.1157,-0.1126,-0.1138,-0.1179,-0.1196,-0.1203,-0.124,-0.1266,-0.1274,-0.126,-0.1311,-0.1321,-0.1371,-0.1398,-0.136,-0.1364,-0.1493,-0.1496,-0.1498,-0.1516,0,0,0,0,0,0,-0.1063,-0.1074,-0.109,-0.1126,-0.1139,-0.1181,-0.1196,-0.1205,-0.1242,-0.1245,-0.1294,-0.13,-0.1311,-0.1365,-0.1375,-0.1402,-0.1367,-0.1492,-0.1494,-0.1497,-0.1513,-0.1518,-0.1522,0,0,0,0,0,-0.106,-0.1077,-0.109,-0.1099,-0.1157,-0.1181,-0.119,-0.1219,-0.1244,-0.1253,-0.1297,-0.13,-0.1389,-0.137,-0.138,-0.1409,-0.149,-0.1494,-0.1497,-0.1511,-0.1517,-0.1522,0,0,0,0,0,0,-0.1043,-0.1084,-0.1098,-0.1128,-0.115,-0.1187,-0.1208,-0.1232,-0.1277,-0.1292,-0.1321,-0.133,-0.1385,-0.1397,-0.1376,-0.1458,-0.144,-0.1445,-0.1447,-0.1453,-0.1458,-0.1439,-0.137,0,0,0,0,0,-0.1046,-0.1074,-0.1103,-0.1129,-0.1142,-0.1182,-0.1203,-0.1223,-0.1261,-0.1282,-0.1316,-0.136,-0.1406,-0.1428,-0.1464,-0.151,-0.1506,-0.1536,-0.154,-0.1544,-0.1537,-0.1569,-0.1576,-0.1509,-0.1509,-0.1509,0,0,-0.1048,-0.1074,-0.1091,-0.1127,-0.1155,-0.1187,-0.1195,-0.1229,-0.1262,-0.1285,-0.1347,-0.1381,-0.1424,-0.1474,-0.15,-0.1487,-0.1559,-0.1548,-0.1551,-0.1542,-0.1573,-0.1579,-0.1585,-0.1511,-0.1511,-0.1511,0,0,-0.1054,-0.1088,-0.1108,-0.1134,-0.1172,-0.1199,-0.1212,-0.1255,-0.1279,-0.1337,-0.1368,-0.1415,-0.1482,-0.1512,-0.154,-0.1594,-0.1585,-0.1609,-0.1615,-0.1647,-0.1652,-0.1656,-0.1642,-0.1645,-0.1607,-0.1607,-0.1607,0,-0.1054,-0.1088,-0.1115,-0.1143,-0.1174,-0.1208,-0.1239,-0.1273,-0.1327,-0.1345,-0.1357,-0.1461,-0.1502,-0.1562,-0.1583,-0.1604,-0.1601,-0.1589,-0.1651,-0.1655,-0.166,-0.1644,-0.1648,-0.1608,-0.1608,-0.1608,-0.1608,0,-0.1073,-0.1109,-0.1126,-0.118,-0.1212,-0.1245,-0.1289,-0.1322,-0.1365,-0.1389,-0.1448,-0.1499,-0.1549,-0.1581,-0.1606,-0.1659,-0.1639,-0.1654,-0.1631,-0.1667,-0.1649,-0.1652,-0.161,-0.161,-0.1609,-0.1609,0,0,-0.1048,-0.1124,-0.1133,-0.1163,-0.1238,-0.1261,-0.1322,-0.1366,-0.1394,-0.1445,-0.1474,-0.1567,-0.1572,-0.1603,-0.1633,-0.1668,-0.1705,-0.1674,-0.1675,-0.1647,-0.174,-0.1571,-0.1558,-0.1731,-0.1732,-0.1733,-0.1707,0,-0.1055,-0.1109,-0.1154,-0.1216,-0.1247,-0.1306,-0.1355,-0.1402,-0.1437,-0.1466,-0.151,-0.1551,-0.1586,-0.1606,-0.165,-0.1691,-0.1716,-0.1708,-0.1719,-0.1718,-0.1555,-0.1558,-0.1737,-0.1709,-0.171,-0.171,-0.1711,0,-0.1053,-0.1093,-0.1151,-0.1229,-0.1249,-0.1297,-0.1369,-0.1413,-0.1459,-0.1482,-0.1516,-0.1532,-0.1585,-0.1611,-0.1684,-0.1674,-0.1709,-0.1738,-0.1738,-0.1574,-0.1555,-0.1672,-0.1716,-0.1716,-0.1715,-0.1715,-0.1714,0,-0.1007,-0.1089,-0.1136,-0.1168,-0.1261,-0.13,-0.1353,-0.1414,-0.1438,-0.1476,-0.1478,-0.1533,-0.155,-0.1614,-0.1658,-0.168,-0.1713,-0.1752,-0.1628,-0.1615,-0.1768,-0.1764,-0.1806,-0.1806,-0.1806,-0.1806,-0.1806,0,-0.0988,-0.1026,-0.1119,-0.1146,-0.1194,-0.1275,-0.1319,-0.1369,-0.1422,-0.1426,-0.1473,-0.1457,-0.1557,-0.1572,-0.1635,-0.1604,-0.1693,-0.1609,-0.1597,-0.1774,-0.1771,-0.1768,-0.1764,-0.1805,-0.1805,-0.1805,-0.1806,0,-0.0926,-0.0991,-0.1043,-0.1144,-0.1171,-0.1206,-0.1295,-0.1315,-0.1375,-0.1376,-0.1382,-0.1408,-0.1399,-0.146,-0.1536,-0.1539,-0.1557,-0.1534,-0.167,-0.1669,-0.1446,-0.1444,-0.1388,-0.1382,-0.1376,-0.1372,-0.1368,0,-0.0901,-0.0921,-0.102,-0.104,-0.1087,-0.1148,-0.1181,-0.1276,-0.129,-0.1321,-0.1301,-0.1288,-0.1292,-0.1234,-0.1332,-0.1376,-0.1396,-0.1399,-0.1467,-0.1409,-0.1404,-0.141,-0.1415,-0.136,-0.1359,-0.1357,-0.1356,0,-0.0843,-0.0884,-0.0923,-0.0965,-0.1006,-0.104,-0.1096,-0.1102,-0.1185,-0.1239,-0.1165,-0.1139,-0.1099,-0.1119,-0.1134,-0.1193,-0.1394,-0.1345,-0.1358,-0.1423,-0.1375,-0.1376,-0.1387,-0.1338,-0.134,-0.1342,-0.1343,0,-0.0795,-0.08,-0.085,-0.0878,-0.0912,-0.0917,-0.097,-0.098,-0.1007,-0.1064,-0.1023,-0.1019,-0.1051,-0.1019,-0.1048,-0.1054,-0.1079,-0.111,-0.1137,-0.1158,-0.1099,-0.1006,-0.0824,0,0,0,0,0,-0.0745,-0.0739,-0.0757,-0.0773,-0.0799,-0.0817,-0.0897,-0.0956,-0.1034,-0.0947,-0.0989,-0.094,-0.0908,-0.0913,-0.088,-0.0983,-0.1109,-0.0945,-0.1165,-0.1237,-0.1258,-0.1213,0,0,0,0,0,0,-0.0711,-0.0721,-0.0727,-0.0674,-0.0655,-0.0673,-0.0722,-0.0786,-0.0756,-0.083,-0.0808,-0.0864,-0.0846,-0.0877,-0.0837,-0.085,-0.0974,-0.0967,-0.0965,-0.1225,-0.1244,-0.1261,-0.1222,0,0,0,0,0]},{"header":{"parameterUnit":"m.s-1","parameterCategory":2,"la1":30.2991,"la2":30.254,"lo1":-89.0895,"lo2":-89.0444,"dy":0.0017,"dx":0.0017,"nx":28,"ny":28,"refTime":"2023-08-10T09:00:00:Z","depth":"4","parameterNumber":3,"parameterNumberName":"V-component_of_CURRENTS"},"data":[0,0,0,0,0,0,0,0,0,0,0,0,0,0,0,0,0,0,0,0,0,0,0,0,0,0,0,0,0,0,0,0,0,0,0,0,0,0,0,0,0,0,0,0,0,0,0,0,0,0,0,0,0,0,0,0,0,0,-0.0336,-0.0335,0,-0.0287,-0.0286,-0.0285,-0.0228,-0.0228,-0.0227,-0.0226,-0.0097,-0.0094,-0.0092,0,0,0,0,0,0,0,0,0,0,0,0,0,-0.036,-0.036,-0.0336,-0.0335,-0.0335,-0.0287,-0.0286,-0.0285,-0.0228,-0.0228,-0.0227,-0.0226,-0.0098,-0.0095,-0.0091,0,0,0,0,0,0,0,0,0,0,0,0,0,-0.0333,-0.036,-0.0336,-0.0302,-0.0298,-0.0287,-0.0286,-0.0285,-0.0229,-0.0228,-0.0226,-0.0225,-0.0099,-0.0095,-0.0091,-0.0087,0,0,-0.0078,-0.0076,0,0,0,0,0,0,0,0,-0.0334,-0.0332,-0.0307,-0.0304,-0.03,-0.0264,-0.0247,-0.0215,-0.0229,-0.0253,-0.0226,-0.0225,-0.0147,-0.0139,-0.0131,-0.008,-0.0075,-0.0078,-0.0075,-0.0074,-0.0072,0,0,0,0,0,0,0,-0.0336,-0.0333,-0.0314,-0.0307,-0.0303,-0.0282,-0.0277,-0.0241,-0.0204,-0.0251,-0.0247,-0.0245,-0.0144,-0.0135,-0.0127,-0.0073,-0.0078,-0.0074,-0.0072,-0.007,-0.0087,-0.009,0,0,0,0,0,0,-0.0348,-0.0335,-0.0316,-0.0313,-0.0317,-0.0283,-0.0277,-0.0275,-0.0206,-0.0196,-0.0246,-0.0242,-0.0143,-0.0132,-0.0123,-0.0135,-0.0074,-0.007,-0.0067,-0.0084,-0.0088,-0.0091,0,0,0,0,0,0,-0.0349,-0.0347,-0.0318,-0.0324,-0.0319,-0.0284,-0.0282,-0.0275,-0.0267,-0.0203,-0.0191,-0.0245,-0.0142,-0.0128,-0.0123,-0.0128,-0.0068,-0.0064,-0.0081,-0.0085,-0.0089,-0.0145,0,0,0,0,0,0,-0.035,-0.0347,-0.0354,-0.0325,-0.032,-0.0314,-0.0283,-0.0275,-0.0268,-0.0263,-0.0199,-0.0186,-0.014,-0.0131,-0.0119,-0.0122,-0.0061,-0.0077,-0.0083,-0.0088,-0.014,-0.0151,-0.0161,0,0,0,0,0,-0.0351,-0.0358,-0.0354,-0.0352,-0.0328,-0.0315,-0.031,-0.028,-0.0269,-0.0268,-0.0251,-0.0188,-0.0158,-0.013,-0.0116,-0.0117,-0.0074,-0.0081,-0.0088,-0.0135,-0.0149,-0.0161,0,0,0,0,0,0,-0.0363,-0.0352,-0.0347,-0.0349,-0.0338,-0.0306,-0.0305,-0.029,-0.0276,-0.0274,-0.0217,-0.0204,-0.021,-0.0172,-0.0142,-0.0149,-0.0109,-0.0113,-0.015,-0.0162,-0.0173,-0.0157,-0.0057,0,0,0,0,0,-0.0374,-0.0379,-0.0363,-0.0365,-0.0365,-0.0341,-0.0334,-0.0317,-0.03,-0.0291,-0.0255,-0.0233,-0.0228,-0.0202,-0.0193,-0.0178,-0.0133,-0.0179,-0.019,-0.0198,-0.0184,-0.0148,-0.0152,-0.0113,-0.0113,-0.0113,0,0,-0.0381,-0.0374,-0.0377,-0.0369,-0.0359,-0.0365,-0.0334,-0.0329,-0.0331,-0.028,-0.0278,-0.0271,-0.0244,-0.0245,-0.0241,-0.0204,-0.0192,-0.0207,-0.0213,-0.0194,-0.0155,-0.0158,-0.016,-0.0117,-0.0116,-0.0116,0,0,-0.0395,-0.0393,-0.0405,-0.0402,-0.0396,-0.0385,-0.0389,-0.0371,-0.0361,-0.0365,-0.0349,-0.0346,-0.032,-0.0299,-0.0286,-0.035,-0.0267,-0.0358,-0.0363,-0.0329,-0.033,-0.0331,-0.0287,-0.0283,-0.034,-0.034,-0.034,0,-0.0405,-0.0416,-0.0405,-0.0416,-0.0423,-0.04,-0.0418,-0.0405,-0.0388,-0.0392,-0.0373,-0.0374,-0.0341,-0.0343,-0.0367,-0.0363,-0.0334,-0.0307,-0.0337,-0.0336,-0.0336,-0.0291,-0.0285,-0.0343,-0.0343,-0.0343,-0.0342,0,-0.0424,-0.0441,-0.0448,-0.046,-0.0465,-0.0475,-0.0466,-0.0469,-0.0461,-0.0451,-0.0463,-0.0432,-0.0425,-0.0423,-0.0402,-0.0399,-0.0378,-0.0367,-0.0289,-0.0342,-0.0293,-0.0286,-0.0348,-0.0347,-0.0346,-0.0345,0,0,-0.0433,-0.046,-0.0464,-0.0487,-0.0494,-0.0501,-0.0515,-0.0525,-0.0541,-0.0516,-0.0531,-0.0514,-0.0498,-0.0486,-0.0462,-0.0414,-0.0383,-0.0384,-0.0381,-0.0313,-0.0302,-0.0261,-0.0249,-0.0376,-0.0375,-0.0375,-0.0272,0,-0.0456,-0.0493,-0.0499,-0.0542,-0.0567,-0.0565,-0.0586,-0.0592,-0.0588,-0.0596,-0.0556,-0.0569,-0.0521,-0.0525,-0.0473,-0.042,-0.0368,-0.0411,-0.0285,-0.0281,-0.0214,-0.0241,-0.0372,-0.0266,-0.0265,-0.0263,-0.0262,0,-0.0477,-0.0501,-0.0551,-0.0601,-0.0613,-0.0637,-0.0675,-0.0686,-0.0688,-0.0688,-0.0672,-0.0652,-0.06,-0.0557,-0.0434,-0.0466,-0.0389,-0.0326,-0.0321,-0.025,-0.0227,-0.0204,-0.0249,-0.025,-0.0251,-0.0252,-0.0253,0,-0.0494,-0.0541,-0.0587,-0.0602,-0.0648,-0.0678,-0.07,-0.0719,-0.0734,-0.0745,-0.0758,-0.0702,-0.0678,-0.0567,-0.0432,-0.0439,-0.0285,-0.0281,-0.0165,-0.016,-0.0198,-0.0199,-0.019,-0.019,-0.019,-0.019,-0.0191,0,-0.0518,-0.0558,-0.0603,-0.0628,-0.069,-0.0711,-0.0764,-0.0784,-0.0803,-0.0822,-0.0805,-0.0796,-0.0679,-0.0581,-0.045,-0.0275,-0.0294,-0.0157,-0.0129,-0.023,-0.0236,-0.0193,-0.0195,-0.0187,-0.0187,-0.0188,-0.0189,0,-0.0537,-0.0564,-0.0624,-0.0682,-0.0703,-0.0748,-0.08,-0.0831,-0.0854,-0.0875,-0.0883,-0.0858,-0.0741,-0.0599,-0.0422,-0.0302,-0.0139,-0.0075,-0.0183,-0.0165,-0.0034,-0.0041,0.006,0.0063,0.0065,0.0066,0.0068,0,-0.0553,-0.0584,-0.0659,-0.0697,-0.0729,-0.0784,-0.0822,-0.0853,-0.0871,-0.0895,-0.0899,-0.0838,-0.0791,-0.0512,-0.0369,-0.0119,-0.0083,0.0007,-0.0016,-0.0024,-0.0007,-0.0017,-0.0026,0.0071,0.0072,0.0072,0.0073,0,-0.0582,-0.0611,-0.0654,-0.0726,-0.0778,-0.0831,-0.0875,-0.0885,-0.0908,-0.093,-0.0893,-0.0789,-0.0668,-0.0492,-0.0306,-0.0125,-0.0047,0.0028,0.0025,0.0004,-0.001,0.0002,-0.0009,0.008,0.0079,0.0078,0.0077,0,-0.0597,-0.0633,-0.0686,-0.0747,-0.0815,-0.0861,-0.0881,-0.0885,-0.0897,-0.0899,-0.0878,-0.0779,-0.0726,-0.0493,-0.031,-0.014,-0.0099,-0.0028,-0.0028,-0.0034,-0.0093,-0.0127,-0.0039,0,0,0,0,0,-0.0604,-0.0639,-0.0701,-0.0768,-0.0836,-0.0872,-0.0912,-0.0918,-0.0922,-0.0885,-0.0875,-0.0756,-0.0535,-0.0466,-0.0285,-0.0275,-0.0073,-0.0056,0.0008,0.0118,0.011,0.0061,0,0,0,0,0,0,-0.0608,-0.0662,-0.0694,-0.0769,-0.0817,-0.0885,-0.091,-0.0916,-0.0878,-0.0869,-0.0759,-0.0698,-0.0493,-0.0643,-0.0285,-0.0239,-0.0166,0.004,0.0045,0.0122,0.0115,0.0109,0.0056,0,0,0,0,0]}]]